Kimball, NE

4:28 AM MDT on May 25, 2017 (GMT -0600)
Kimball Municipal-Arraj

Weather History for KIBM - November, 2012

Change the Weather History Date:

Wednesday, November 7, 2012

  Actual Average (KSNY) Record (KSNY)
Temperature  
Mean Temperature 53 °F -  
Max Temperature 74 °F 55 °F 78 °F (1983)
Min Temperature 32 °F 24 °F 5 °F (1990)
Degree Days  
Heating Degree Days 12    
Growing Degree Days 3 (Base 50)    
Moisture  
Dew Point 25 °F    
Average Humidity 48    
Maximum Humidity 88    
Minimum Humidity 12    
Precipitation  
Precipitation 0.00 in - - ()
Sea Level Pressure  
Sea Level Pressure 30.00 in    
Wind  
Wind Speed 9 mph (WSW)    
Max Wind Speed 21 mph    
Max Gust Speed 25 mph    
Visibility 10 miles    
Events      
Averages and records for this station are not official NWS values.
T = Trace of Precipitation, MM = Missing Value Source: NWS Daily Summary

Daily Weather History Graph

Daily Weather History Graph

Search for Another Location

Airport or City:

Trip Planner

Search our weather history database for the weather conditions in past years. The results will help you decide how hot, cold, wet, or windy it might be!

Date:

Astronomy

Nov. 07, 2012 Rise Set
Actual Time 7:33 AM CST 5:42 PM CST
Civil Twilight 7:04 AM CST 6:11 PM CST
Nautical Twilight 6:31 AM CST 6:44 PM CST
Astronomical Twilight 5:59 AM CST 7:16 PM CST
Moon 12:26 AM CST (11/7) 1:56 PM CST (11/7)
Length of Visible Light 11h 07m
Length of Day
10h 08m
Last Quarter, 43% of the Moon is Illuminated
Nov 7
Last Quarter
Nov 13
New
Nov 20
First Quarter
Nov 28
Full
Dec 6
Last Quarter

Hourly Weather History & Observations

Time (CST) Temp. Windchill Dew Point Humidity Pressure Visibility Wind Dir Wind Speed Gust Speed Precip Events Conditions
12:15 AM 34.0 °F 31.0 °F 28.6 °F 81% 30.16 in 10.0 mi SW 3.5 mph - N/A   Clear
12:35 AM 35.4 °F 30.5 °F 29.7 °F 80% 30.16 in 10.0 mi SW 5.8 mph - N/A   Clear
12:55 AM 33.1 °F 26.9 °F 28.8 °F 84% 30.15 in 10.0 mi WSW 6.9 mph - N/A   Clear
1:15 AM 34.7 °F 28.8 °F 30.0 °F 83% 30.15 in 10.0 mi WSW 6.9 mph - N/A   Clear
1:35 AM 34.7 °F 29.6 °F 29.8 °F 82% 30.14 in 10.0 mi WSW 5.8 mph - N/A   Clear
1:55 AM 34.0 °F 28.0 °F 29.8 °F 85% 30.14 in 10.0 mi WSW 6.9 mph - N/A   Clear
2:15 AM 34.7 °F 28.1 °F 30.2 °F 84% 30.13 in 10.0 mi WSW 8.1 mph - N/A   Clear
2:55 AM 34.3 °F 28.4 °F 30.0 °F 84% 30.12 in 10.0 mi West 6.9 mph - N/A   Clear
3:15 AM 32.5 °F 25.5 °F 29.3 °F 88% 30.12 in 10.0 mi WSW 8.1 mph - N/A   Clear
3:35 AM 33.6 °F 25.6 °F 29.8 °F 86% 30.10 in 10.0 mi West 10.4 mph - N/A   Clear
3:55 AM 34.7 °F 28.8 °F 30.2 °F 84% 30.10 in 10.0 mi WSW 6.9 mph - N/A   Clear
4:15 AM 34.9 °F 27.7 °F 30.4 °F 84% 30.09 in 10.0 mi West 9.2 mph - N/A   Clear
4:35 AM 36.7 °F 28.9 °F 31.5 °F 81% 30.09 in 10.0 mi West 11.5 mph - N/A   Clear
4:55 AM 36.7 °F 29.9 °F 31.3 °F 81% 30.09 in 10.0 mi West 9.2 mph - N/A   Clear
5:15 AM 34.0 °F 28.0 °F 30.2 °F 86% 30.08 in 10.0 mi West 6.9 mph - N/A   Clear
5:35 AM 33.8 °F 26.4 °F 30.2 °F 87% 30.08 in 10.0 mi West 9.2 mph - N/A   Clear
5:55 AM 33.8 °F 27.0 °F 30.2 °F 87% 30.08 in 10.0 mi WSW 8.1 mph - N/A   Clear
6:15 AM 35.2 °F 29.5 °F 30.2 °F 82% 30.08 in 10.0 mi West 6.9 mph - N/A   Clear
6:35 AM 33.6 °F 28.4 °F 29.7 °F 85% 30.07 in 10.0 mi West 5.8 mph - N/A   Clear
6:55 AM 33.1 °F 24.9 °F 29.1 °F 85% 30.06 in 10.0 mi West 10.4 mph - N/A   Clear
7:15 AM 32.4 °F 25.3 °F 28.9 °F 87% 30.06 in 10.0 mi WSW 8.1 mph - N/A   Clear
7:35 AM 32.4 °F 24.0 °F 28.8 °F 87% 30.06 in 10.0 mi West 10.4 mph - N/A   Clear
7:55 AM 33.3 °F 27.9 °F 28.9 °F 84% 30.06 in 10.0 mi West 5.8 mph - N/A   Clear
8:15 AM 36.3 °F 29.5 °F 30.2 °F 78% 30.06 in 10.0 mi WSW 9.2 mph - N/A   Clear
8:35 AM 39.6 °F 34.7 °F 31.6 °F 73% 30.06 in 10.0 mi WSW 6.9 mph - N/A   Clear
8:55 AM 44.2 °F 40.3 °F 32.4 °F 63% 30.06 in 10.0 mi WSW 6.9 mph - N/A   Clear
9:15 AM 47.7 °F - 33.1 °F 57% 30.06 in 10.0 mi West 10.4 mph - N/A   Clear
9:35 AM 52.7 °F - 32.9 °F 47% 30.06 in 10.0 mi WSW 10.4 mph - N/A   Clear
9:55 AM 56.7 °F - 32.2 °F 40% 30.05 in 10.0 mi WSW 10.4 mph - N/A   Clear
10:15 AM 59.7 °F - 32.0 °F 35% 30.05 in 10.0 mi WSW 10.4 mph - N/A   Clear
10:35 AM 62.8 °F - 31.8 °F 31% 30.04 in 10.0 mi SW 10.4 mph - N/A   Clear
10:55 AM 66.9 °F - 27.1 °F 22% 30.03 in 10.0 mi SSW 13.8 mph - N/A   Clear
11:15 AM 69.1 °F - 24.3 °F 19% 30.03 in 10.0 mi SW 19.6 mph - N/A   Clear
11:35 AM 70.7 °F - 23.4 °F 17% 30.02 in 10.0 mi SW 18.4 mph 23.0 mph N/A   Clear
11:55 AM 71.4 °F - 21.9 °F 16% 30.01 in 10.0 mi SW 17.3 mph 20.7 mph N/A   Clear
12:15 PM 71.8 °F - 21.2 °F 15% 30.00 in 10.0 mi SW 19.6 mph 25.3 mph N/A   Clear
12:35 PM 72.3 °F - 20.3 °F 14% 29.99 in 10.0 mi SSW 20.7 mph - N/A   Clear
12:55 PM 73.0 °F - 20.7 °F 14% 29.97 in 10.0 mi SW 18.4 mph 25.3 mph N/A   Clear
1:15 PM 72.7 °F - 20.1 °F 14% 29.96 in 10.0 mi SW 19.6 mph 25.3 mph N/A   Clear
1:35 PM 73.0 °F - 20.1 °F 14% 29.94 in 10.0 mi SSW 19.6 mph - N/A   Clear
1:55 PM 74.1 °F - 20.3 °F 13% 29.94 in 10.0 mi SW 17.3 mph - N/A   Clear
2:15 PM 73.6 °F - 19.8 °F 13% 29.93 in 10.0 mi SW 12.7 mph 19.6 mph N/A   Clear
2:35 PM 74.7 °F - 18.7 °F 12% 29.92 in 10.0 mi West 15.0 mph 24.2 mph N/A   Clear
2:55 PM 74.1 °F - 19.6 °F 13% 29.92 in 10.0 mi SW 17.3 mph 20.7 mph N/A   Clear
3:15 PM 73.6 °F - 19.6 °F 13% 29.91 in 10.0 mi SSW 15.0 mph - N/A   Clear
3:35 PM 73.4 °F - 19.4 °F 13% 29.90 in 10.0 mi SSW 11.5 mph - N/A   Clear
3:55 PM 73.4 °F - 19.6 °F 13% 29.90 in 10.0 mi SSW 11.5 mph - N/A   Clear
4:15 PM 73.4 °F - 18.5 °F 13% 29.90 in 10.0 mi WSW 12.7 mph - N/A   Clear
4:35 PM 69.4 °F - 18.7 °F 14% 29.91 in 10.0 mi SSW 9.2 mph - N/A   Clear
4:55 PM 62.1 °F - 20.3 °F 20% 29.91 in 10.0 mi SSW 4.6 mph - N/A   Clear
5:15 PM 59.0 °F - 22.1 °F 24% 29.90 in 10.0 mi SSW 6.9 mph - N/A   Clear
5:35 PM 56.1 °F - 22.5 °F 27% 29.90 in 10.0 mi SSW 8.1 mph - N/A   Clear
5:55 PM 57.2 °F - 22.1 °F 26% 29.90 in 10.0 mi SW 9.2 mph - N/A   Clear
6:15 PM 53.8 °F - 22.1 °F 29% 29.90 in 10.0 mi SW 6.9 mph - N/A   Clear
6:35 PM 53.4 °F - 22.1 °F 30% 29.90 in 10.0 mi SW 10.4 mph - N/A   Clear
6:55 PM 51.8 °F - 22.5 °F 32% 29.91 in 10.0 mi WSW 9.2 mph - N/A   Clear
7:15 PM 49.8 °F - 22.5 °F 34% 29.91 in 10.0 mi WSW 9.2 mph - N/A   Clear
7:35 PM 48.0 °F - 22.5 °F 37% 29.91 in 10.0 mi WSW 10.4 mph - N/A   Clear
7:55 PM 50.9 °F - 22.1 °F 32% 29.91 in 10.0 mi SW 11.5 mph - N/A   Clear
8:15 PM 48.4 °F - 22.1 °F 36% 29.91 in 10.0 mi WSW 9.2 mph - N/A   Clear
8:35 PM 46.9 °F - 22.1 °F 38% 29.91 in 10.0 mi WSW 9.2 mph - N/A   Clear
8:55 PM 47.7 °F - 21.7 °F 36% 29.91 in 10.0 mi WSW 11.5 mph - N/A   Clear
9:15 PM 44.6 °F 40.7 °F 22.1 °F 41% 29.92 in 10.0 mi WSW 6.9 mph - N/A   Clear
9:35 PM 41.0 °F 35.2 °F 22.6 °F 48% 29.92 in 10.0 mi West 9.2 mph - N/A   Clear
9:55 PM 43.2 °F 37.4 °F 23.0 °F 45% 29.92 in 10.0 mi West 10.4 mph - N/A   Clear
10:15 PM 44.6 °F 39.2 °F 23.4 °F 43% 29.92 in 10.0 mi WSW 10.4 mph - N/A   Clear
10:35 PM 45.5 °F 41.3 °F 23.0 °F 41% 29.92 in 10.0 mi West 8.1 mph - N/A   Clear
10:55 PM 45.3 °F 41.6 °F 22.5 °F 40% 29.92 in 10.0 mi NW 6.9 mph - N/A   Clear
11:15 PM 39.4 °F 33.8 °F 22.3 °F 50% 29.92 in 10.0 mi West 8.1 mph - N/A   Clear
11:35 PM 40.1 °F 33.6 °F 21.6 °F 48% 29.91 in 10.0 mi West 10.4 mph - N/A   Clear
11:55 PM 51.3 °F - 19.2 °F 28% 29.91 in 10.0 mi West 11.5 mph - N/A   Clear